NOAA 16 DEB

Satellite information

Favourite Embed

Satellite Type and Status

DEBRISIN ORBIT

Key statistics

Satellite NOAA 16 DEB at a glance.

Uptime

9215

Days in orbit

Revolutions

≈ 14.2

Per day

Orbit

SSO

Sun Synchronous Orbit

Inclination

98.7

Latest

Satellite identification and parameters

Extended collection of information and parameters for NOAA 16 DEB.

Object identification

Identified? True

Debris? True

Object name: NOAA 16 DEB

International designator: 2000-055LT

Object number (NORAD): 41495

Object ID (CCSDS): 41495

Country: UNITED STATES OF AMERICA (US)

Current information (Y/N): Y

RCS size: SMALL

Orbital parameters

Period: 101.704 minutes

Inclination: 98.6774 deg

SMA: 7217.466 km

Apoapsis: 865.988 km

Periapsis: 812.674 km

RAAN: 352.935 deg

Eccentricy: 0.00369339

Argument of periapsis: 61.8802 deg

Mean anomaly: 298.6097 deg

Mean motion: 14.15877349 rev/day

Mean motion (dot): 0.00005273 rev/day2

B* drag term: 0.0026819594 1/REarth

Two-line elements (TLE)

Creation date: Dec. 11, 2025, 7:14 p.m.

Reference frame: TEME

Reference center: EARTH

Epoch: Dec. 11, 2025, 11:11 a.m. UTC

TLE line 0: 0 NOAA 16 DEB

TLE line 1: 1 41495U 00055LT 25345.46601589 .00005273 00000-0 26820-2 0 9998

TLE line 2: 2 41495 98.6774 352.9350 0036934 61.8802 298.6097 14.15877349501166

Live tracking on map

Real-time ground track for satellite NOAA 16 DEB.

In-orbit conjunctions

A list of the most updated potential collisions computed for object NOAA 16 DEB.

Target Orbit TCA Probability of collision Miss distance Type
COSMOS 1066 LEO 2025-11-08 15:44:16 0.0003651854 134.0 (m) PAYLOAD
THOR ABLESTAR DEB LEO 2024-06-18 07:19:28 0.000125962 352.0 (m) DEBRIS

Associated space launch

The NOAA K, L and M POES satellites begin the fifth generation of improved environmental monitoring in support of NOAA missions. The instrument payload has significant improvements and additions/deletions. The instrument changes have effected the spacecraft subsystems and data formats.

NOAA 16 DEB was lifted into orbit during the mission ‘Titan II SLV | NOAA 16’, on board a Titan II SLV space rocket.

The launch took place on Sept. 21, 2000, 10:22 a.m. from Space Launch Complex 4W.

For more information about the launch, click the button.

Launch to space Titan II SLV | NOAA 16
Titan II SLV | NOAA 16

Agency: N/A

Status: Launch Successful

Launch date: Sept. 21, 2000, 10:22 a.m. UTC

Rocket: Titan II SLV

Launch pad: Space Launch Complex 4W

Location: Vandenberg SFB, CA, USA

...

Latest news about this satellite

There are no fresh news available about this satellite. Check back as we update our databases every day.


Newsletter sign-up

Weekly statistics, charts and insights to help you stay on top of the space industry.